Siemreap, Cambodia

5:57 AM +07 on September 21, 2017 (GMT +0700)
Siem Reap

Weather History for VDSR - April, 2013

Change the Weather History Date:

Wednesday, April 24, 2013

  Actual Average Record
Temperature  
Mean Temperature 86 °F -  
Max Temperature 96 °F - - ()
Min Temperature 75 °F - - ()
Cooling Degree Days 20    
Growing Degree Days 36 (Base 50)    
Moisture  
Dew Point 71 °F    
Average Humidity 57    
Maximum Humidity 79    
Minimum Humidity 34    
Precipitation  
Precipitation 0.00 in - - ()
Sea Level Pressure  
Sea Level Pressure 29.81 in    
Wind  
Wind Speed 6 mph ()    
Max Wind Speed 14 mph    
Max Gust Speed -    
Visibility 6.1 miles    
Events      
T = Trace of Precipitation, MM = Missing Value Source: Averaged Metar Reports

Daily Weather History Graph

Daily Weather History Graph

Search for Another Location

Airport or City:

Trip Planner

Search our weather history database for the weather conditions in past years. The results will help you decide how hot, cold, wet, or windy it might be!

Date:

Astronomy

Apr. 24, 2013 Rise Set
Actual Time 5:46 AM +07 6:18 PM +07
Civil Twilight 5:24 AM +07 6:40 PM +07
Nautical Twilight 4:59 AM +07 7:06 PM +07
Astronomical Twilight 4:33 AM +07 7:32 PM +07
Moon 4:56 PM +07 (4/24) 4:14 AM +07 (4/24)
Length of Visible Light 13h 15m
Length of Day
12h 31m
Waxing Gibbous, 96% of the Moon is Illuminated
Apr 24
Waxing Gibbous
Apr 26
Full
May 2
Last Quarter
May 10
New
May 18
First Quarter

Hourly Weather History & Observations

Time (+07) Temp. Heat Index Dew Point Humidity Pressure Visibility Wind Dir Wind Speed Gust Speed Precip Events Conditions
12:00 AM 82.4 °F 89.5 °F 75.2 °F 79% 29.86 in 5.6 mi West 3.5 mph - N/A   Unknown
12:30 AM 82.4 °F 89.5 °F 75.2 °F 79% 29.86 in 5.6 mi West 3.5 mph - N/A   Unknown
1:00 AM 82.4 °F 89.5 °F 75.2 °F 79% 29.83 in 5.6 mi West 3.5 mph - N/A   Unknown
7:00 AM - - - %  in - Calm Calm - -  
7:00 AM 84.2 °F 90.9 °F 73.4 °F 70% 29.86 in 6.2 mi SE 6.9 mph - N/A   Partly Cloudy
7:30 AM 84.2 °F 92.3 °F 75.2 °F 74% 29.86 in 6.2 mi SE 9.2 mph - N/A   Partly Cloudy
8:00 AM 84.2 °F 90.9 °F 73.4 °F 70% 29.89 in 6.2 mi ESE 9.2 mph - N/A   Partly Cloudy
8:30 AM 86.0 °F 95.1 °F 75.2 °F 70% 29.89 in 6.2 mi ESE 9.2 mph - N/A   Partly Cloudy
9:00 AM 87.8 °F 95.6 °F 73.4 °F 62% 29.89 in 6.2 mi SE 9.2 mph - N/A   Partly Cloudy
9:30 AM 87.8 °F 95.6 °F 73.4 °F 62% 29.89 in 6.2 mi SE 6.9 mph - N/A   Scattered Clouds
10:00 AM 91.4 °F 100.1 °F 73.4 °F 55% 29.89 in 6.2 mi SSE 6.9 mph - N/A   Scattered Clouds
10:30 AM 89.6 °F 98.2 °F 73.4 °F 59% 29.89 in 6.2 mi South 8.1 mph - N/A   Scattered Clouds
11:00 AM 91.4 °F 98.4 °F 71.6 °F 52% 29.86 in 6.2 mi South 8.1 mph - N/A   Scattered Clouds
11:30 AM 93.2 °F 97.7 °F 68.0 °F 44% 29.86 in 6.2 mi South 8.1 mph - N/A   Scattered Clouds
12:00 PM 93.2 °F 97.7 °F 68.0 °F 44% 29.83 in 6.2 mi South 10.4 mph - N/A   Scattered Clouds
12:30 PM 95.0 °F 99.5 °F 68.0 °F 41% - 6.2 mi South 8.1 mph - N/A   Partly Cloudy
1:00 PM 96.8 °F 101.8 °F 68.0 °F 39% 29.80 in 6.2 mi Variable 6.9 mph - N/A   Partly Cloudy
1:30 PM 96.8 °F 101.8 °F 68.0 °F 39% 29.77 in 6.2 mi South 6.9 mph - N/A   Partly Cloudy
2:00 PM 96.8 °F 101.8 °F 68.0 °F 39% 29.74 in 6.2 mi South 9.2 mph - N/A   Partly Cloudy
3:00 PM 96.8 °F 100.7 °F 66.2 °F 37% 29.71 in 6.2 mi South 6.9 mph - N/A   Partly Cloudy
3:30 PM 96.8 °F 99.0 °F 64.4 °F 34% 29.71 in 6.2 mi South 10.4 mph - N/A   Partly Cloudy
4:00 PM 96.8 °F 99.0 °F 64.4 °F 34% 29.68 in 6.2 mi South 8.1 mph - N/A   Partly Cloudy
4:30 PM 96.8 °F 99.0 °F 64.4 °F 34% 29.71 in 6.2 mi South 6.9 mph - N/A   Partly Cloudy
5:00 PM 96.8 °F 99.0 °F 64.4 °F 34% 29.71 in 6.2 mi SW 8.1 mph - N/A   Partly Cloudy
5:30 PM 95.0 °F 99.5 °F 68.0 °F 41% 29.71 in 6.2 mi SSW 8.1 mph - N/A   Partly Cloudy
6:00 PM 93.2 °F 94.9 °F 64.4 °F 38% 29.71 in 6.2 mi South 6.9 mph - N/A   Scattered Clouds
6:30 PM 93.2 °F 96.2 °F 66.2 °F 41% 29.74 in 6.2 mi SSE 4.6 mph - N/A   Scattered Clouds
7:00 PM 86.0 °F 91.8 °F 71.6 °F 62% 29.77 in 6.2 mi NNE 13.8 mph - N/A   Scattered Clouds
7:30 PM 82.4 °F 87.2 °F 71.6 °F 70% 29.77 in 6.2 mi NE 11.5 mph - N/A   Scattered Clouds
8:00 PM 84.2 °F 90.9 °F 73.4 °F 70% 29.77 in 6.2 mi East 6.9 mph - N/A   Scattered Clouds
9:00 PM 82.4 °F 88.2 °F 73.4 °F 74% 29.80 in 6.2 mi SSE 2.3 mph - N/A   Partly Cloudy
9:30 PM 82.4 °F 88.2 °F 73.4 °F 74% 29.80 in 6.2 mi West 5.8 mph - N/A   Partly Cloudy
10:00 PM 82.4 °F 88.2 °F 73.4 °F 74% 29.83 in 6.2 mi WNW 4.6 mph - N/A   Partly Cloudy
10:30 PM 82.4 °F 88.2 °F 73.4 °F 74% 29.83 in 6.2 mi NNW 3.5 mph - N/A   Partly Cloudy
11:00 PM 82.4 °F 88.2 °F 73.4 °F 74% 29.83 in 6.2 mi NNW 1.2 mph - N/A   Partly Cloudy
11:30 PM 82.4 °F 88.2 °F 73.4 °F 74% 29.83 in 6.2 mi Variable 1.2 mph - N/A   Partly Cloudy